[[{"header":{"parameterUnit":"m.s-1","parameterCategory":1,"la1":30.2991,"la2":30.254,"lo1":-89.0895,"lo2":-89.0444,"dx":0.0017,"dy":0.0017,"nx":28,"ny":28,"refTime":"2023-01-21T15:00:00:Z","depth":0,"parameterNumber":2,"parameterNumberName":"U-component_of_WINDS"},"data":[0,0,0,0,0,0,0,0,0,0,0,0,0,0,0,0,0,0,0,0,0,0,0,0,0,0,0,0,0,0,0,0,0,0,0,0,0,0,0,0,0,0,0,0,0,0,0,0,0,0,0,0,0,0,0,0,0,0,0.8509,0.8509,0,0.8477,0.8477,0.8477,0.8467,0.8467,0.8467,0.8467,0.8434,0.8433,0.8432,0,0,0,0,0,0,0,0,0,0,0,0,0,0.8561,0.856,0.8509,0.8508,0.8508,0.8477,0.8477,0.8476,0.8467,0.8467,0.8467,0.8468,0.8434,0.8433,0.8432,0,0,0,0,0,0,0,0,0,0,0,0,0,0.8535,0.856,0.8509,0.85,0.8499,0.8477,0.8477,0.8476,0.8467,0.8467,0.8467,0.8468,0.8435,0.8433,0.8432,0.8417,0,0,0.8427,0.8426,0,0,0,0,0,0,0,0,0.8536,0.8533,0.8501,0.85,0.8499,0.8476,0.8483,0.8456,0.8467,0.8479,0.8467,0.8468,0.8448,0.8445,0.8439,0.8416,0.8414,0.8427,0.8426,0.8425,0.8425,0,0,0,0,0,0,0,0.8538,0.8534,0.8496,0.8501,0.8499,0.8497,0.8494,0.8478,0.8462,0.8478,0.8477,0.8474,0.8447,0.844,0.8438,0.8414,0.8427,0.8425,0.8424,0.8424,0.8378,0.8378,0,0,0,0,0,0,0.8541,0.8536,0.8497,0.8495,0.8519,0.8496,0.8492,0.8483,0.8462,0.846,0.8473,0.8473,0.8443,0.844,0.8437,0.8419,0.8425,0.8424,0.8423,0.8378,0.8378,0.8378,0,0,0,0,0,0,0.8543,0.8538,0.8499,0.8515,0.851,0.8495,0.8485,0.8483,0.8476,0.8459,0.8456,0.8469,0.8443,0.8439,0.8422,0.8417,0.8423,0.8422,0.8379,0.8378,0.8378,0.8383,0,0,0,0,0,0,0.8544,0.8539,0.8533,0.8515,0.8509,0.8485,0.8485,0.8482,0.8473,0.8473,0.8454,0.8452,0.8443,0.8425,0.8421,0.8415,0.842,0.8379,0.8379,0.8378,0.8383,0.8382,0.8382,0,0,0,0,0,0.8546,0.8535,0.8533,0.8528,0.8502,0.8485,0.8481,0.8472,0.8473,0.8467,0.8457,0.8452,0.8419,0.8423,0.8419,0.8413,0.8379,0.8379,0.8378,0.8383,0.8382,0.8382,0,0,0,0,0,0,0.8551,0.8532,0.8529,0.8512,0.85,0.8483,0.8475,0.8471,0.8458,0.8458,0.8446,0.8442,0.8427,0.8418,0.8423,0.8398,0.8399,0.8397,0.8404,0.8404,0.8403,0.8405,0.8419,0,0,0,0,0,0.8551,0.8539,0.8523,0.8509,0.8503,0.849,0.8483,0.8476,0.8463,0.8458,0.8446,0.8433,0.842,0.8411,0.8398,0.8382,0.8378,0.8376,0.8375,0.8375,0.8374,0.8365,0.8364,0.8376,0.8376,0.8376,0,0,0.8549,0.8537,0.853,0.851,0.85,0.8487,0.8486,0.8473,0.8464,0.8456,0.844,0.8431,0.8416,0.84,0.8392,0.8392,0.837,0.8374,0.8374,0.8373,0.8364,0.8363,0.8362,0.8375,0.8375,0.8376,0,0,0.8539,0.8529,0.8517,0.8507,0.8492,0.8484,0.8481,0.8465,0.8459,0.8443,0.8437,0.8426,0.8403,0.8393,0.8385,0.8374,0.8369,0.837,0.8367,0.8359,0.8358,0.8357,0.8353,0.8352,0.8368,0.8368,0.8368,0,0.8539,0.852,0.8511,0.8499,0.849,0.8484,0.8471,0.8462,0.8444,0.8438,0.8439,0.8411,0.84,0.8382,0.8379,0.8373,0.8369,0.8371,0.8359,0.8358,0.8357,0.8353,0.8352,0.8369,0.8368,0.8368,0.8368,0,0.852,0.8508,0.85,0.8483,0.8474,0.8461,0.8451,0.8442,0.8438,0.843,0.8414,0.8401,0.8386,0.8381,0.8376,0.8362,0.8363,0.8361,0.8362,0.8356,0.8353,0.8351,0.8369,0.8369,0.8369,0.8369,0,0,0.8512,0.8491,0.8488,0.8481,0.8465,0.8455,0.8443,0.8428,0.8422,0.841,0.8399,0.8381,0.838,0.8371,0.8365,0.8358,0.835,0.8357,0.8356,0.8356,0.8335,0.8336,0.8334,0.8347,0.8347,0.8347,0.8336,0,0.85,0.8478,0.847,0.8452,0.8441,0.8435,0.8425,0.8414,0.8406,0.8396,0.8387,0.8375,0.8374,0.8369,0.8362,0.8352,0.8345,0.8353,0.8337,0.8337,0.8341,0.8332,0.8333,0.8323,0.8335,0.8334,0.8334,0,0.8483,0.8471,0.8452,0.8439,0.8434,0.8424,0.8411,0.8401,0.8389,0.8384,0.8375,0.8369,0.8357,0.8359,0.8342,0.8347,0.8341,0.8335,0.8335,0.8332,0.8335,0.8329,0.832,0.8318,0.8332,0.8332,0.8332,0,0.8478,0.8458,0.8445,0.8438,0.8422,0.8416,0.8409,0.8397,0.8389,0.8378,0.8373,0.836,0.8353,0.8343,0.8335,0.8337,0.8318,0.832,0.8314,0.8314,0.831,0.831,0.8299,0.8306,0.8306,0.8306,0.8306,0,0.8466,0.8454,0.8443,0.8434,0.8421,0.8413,0.8401,0.8393,0.8383,0.8373,0.8368,0.8359,0.8348,0.8338,0.8332,0.8319,0.8315,0.8311,0.831,0.8311,0.8312,0.8306,0.8307,0.8306,0.8306,0.8306,0.8306,0,0.8458,0.845,0.8435,0.8421,0.8417,0.8409,0.8397,0.8389,0.8382,0.837,0.8366,0.8355,0.8343,0.8334,0.8318,0.8313,0.83,0.8298,0.8304,0.8303,0.8298,0.8298,0.8282,0.828,0.8289,0.8289,0.8289,0,0.845,0.8442,0.8428,0.8421,0.8414,0.8403,0.8396,0.8388,0.838,0.8367,0.836,0.8348,0.8337,0.8318,0.8308,0.8296,0.8294,0.829,0.8292,0.8295,0.8294,0.8295,0.8294,0.8289,0.8289,0.8289,0.8289,0,0.8437,0.8434,0.8423,0.8412,0.8403,0.8393,0.8384,0.8378,0.8369,0.8361,0.8348,0.834,0.8325,0.8313,0.83,0.8293,0.8289,0.8288,0.8286,0.8288,0.8291,0.829,0.8302,0.8288,0.8288,0.8288,0.8288,0.8288,0.8429,0.8422,0.8411,0.84,0.8392,0.8383,0.8375,0.8368,0.8357,0.8344,0.834,0.8328,0.8317,0.83,0.8293,0.8283,0.8283,0.828,0.828,0.8279,0.8279,0.8294,0.8281,0.8281,0.8281,0.8281,0.8281,0,0.8416,0.8409,0.8399,0.8386,0.8377,0.8376,0.8365,0.8358,0.8347,0.8338,0.8328,0.8315,0.8303,0.8294,0.8282,0.8276,0.8274,0.8273,0.8273,0.8272,0.828,0.8282,0.8275,0.8275,0.8275,0.8275,0.8275,0.8275,0.8408,0.8395,0.8391,0.8374,0.8368,0.8356,0.835,0.8342,0.8335,0.832,0.8311,0.8305,0.8296,0.8284,0.8273,0.8271,0.8267,0.8266,0.8263,0.827,0.8271,0.8272,0.8274,0.8265,0.8265,0.8256,0.8256,0.8256]},{"header":{"parameterUnit":"m.s-1","parameterCategory":1,"la1":30.2991,"la2":30.254,"lo1":-89.0895,"lo2":-89.0444,"dx":0.0017,"dy":0.0017,"nx":28,"ny":28,"refTime":"2023-01-21T15:00:00:Z","depth":0,"parameterNumber":3,"parameterNumberName":"V-component_of_WINDS"},"data":[0,0,0,0,0,0,0,0,0,0,0,0,0,0,0,0,0,0,0,0,0,0,0,0,0,0,0,0,0,0,0,0,0,0,0,0,0,0,0,0,0,0,0,0,0,0,0,0,0,0,0,0,0,0,0,0,0,0,-5.7486,-5.7488,0,-5.7644,-5.7646,-5.7648,-5.7613,-5.761,-5.7607,-5.7605,-5.7762,-5.7768,-5.7775,0,0,0,0,0,0,0,0,0,0,0,0,0,-5.7148,-5.7154,-5.7486,-5.7488,-5.749,-5.7644,-5.7646,-5.7648,-5.7614,-5.761,-5.7607,-5.7603,-5.7759,-5.7767,-5.7776,0,0,0,0,0,0,0,0,0,0,0,0,0,-5.7299,-5.7156,-5.7486,-5.7492,-5.7494,-5.7644,-5.7646,-5.7649,-5.7615,-5.761,-5.7606,-5.7602,-5.7757,-5.7767,-5.7777,-5.7929,0,0,-5.7809,-5.7813,0,0,0,0,0,0,0,0,-5.7291,-5.7312,-5.7489,-5.7491,-5.7494,-5.7605,-5.7584,-5.7743,-5.7616,-5.7569,-5.7605,-5.7599,-5.7713,-5.7726,-5.7766,-5.7937,-5.7944,-5.781,-5.7816,-5.782,-5.7823,0,0,0,0,0,0,0,-5.728,-5.7305,-5.7549,-5.7491,-5.7495,-5.7484,-5.7501,-5.7614,-5.7663,-5.7572,-5.757,-5.759,-5.7713,-5.7756,-5.7769,-5.7946,-5.7809,-5.7818,-5.7825,-5.7829,-5.8248,-5.8252,0,0,0,0,0,0,-5.7268,-5.7296,-5.7544,-5.7553,-5.738,-5.7494,-5.7512,-5.7574,-5.7662,-5.7671,-5.7593,-5.7587,-5.774,-5.7757,-5.7774,-5.7958,-5.782,-5.783,-5.7836,-5.8243,-5.8249,-5.8254,0,0,0,0,0,0,-5.7261,-5.7291,-5.7537,-5.7424,-5.7455,-5.7504,-5.7573,-5.7579,-5.7622,-5.7678,-5.7686,-5.7628,-5.7737,-5.776,-5.7891,-5.7963,-5.7835,-5.7844,-5.8237,-5.8245,-5.8252,-5.8327,0,0,0,0,0,0,-5.7252,-5.7288,-5.7349,-5.7426,-5.7461,-5.7654,-5.7578,-5.7585,-5.764,-5.7634,-5.7713,-5.7721,-5.7735,-5.7876,-5.7901,-5.7975,-5.7852,-5.8231,-5.8241,-5.8249,-5.8318,-5.8336,-5.8351,0,0,0,0,0,-5.724,-5.7363,-5.7352,-5.7382,-5.7538,-5.7658,-5.7678,-5.7693,-5.7646,-5.7706,-5.7742,-5.7719,-5.7951,-5.789,-5.7918,-5.7996,-5.8226,-5.8238,-5.8248,-5.8311,-5.8332,-5.8351,0,0,0,0,0,0,-5.7291,-5.7373,-5.7362,-5.7514,-5.7579,-5.7652,-5.7728,-5.7715,-5.7794,-5.7785,-5.7799,-5.7817,-5.795,-5.7986,-5.7916,-5.8147,-5.8082,-5.8099,-5.8119,-5.814,-5.8156,-5.8145,-5.7861,0,0,0,0,0,-5.7321,-5.7413,-5.7479,-5.7607,-5.764,-5.7679,-5.7731,-5.7737,-5.7805,-5.7832,-5.7877,-5.7942,-5.8029,-5.8086,-5.817,-5.8323,-5.8338,-5.839,-5.8406,-5.8419,-5.8434,-5.8516,-5.8539,-5.829,-5.829,-5.829,0,0,-5.7382,-5.7438,-5.7495,-5.7618,-5.767,-5.7763,-5.7702,-5.7804,-5.7873,-5.7847,-5.7974,-5.8009,-5.8082,-5.8225,-5.829,-5.8258,-5.8506,-5.8433,-5.8444,-5.8451,-5.853,-5.8553,-5.8574,-5.8298,-5.8296,-5.8295,0,0,-5.7541,-5.7594,-5.7706,-5.7758,-5.7837,-5.7861,-5.7888,-5.7962,-5.7985,-5.8113,-5.8095,-5.8176,-5.8326,-5.8379,-5.8425,-5.8602,-5.8583,-5.8628,-5.8714,-5.8794,-5.8814,-5.8831,-5.8893,-5.8916,-5.8643,-5.8643,-5.8643,0,-5.7607,-5.775,-5.7764,-5.7868,-5.7922,-5.7903,-5.8015,-5.8065,-5.8166,-5.8203,-5.8166,-5.8354,-5.8402,-5.8556,-5.8599,-5.8637,-5.8666,-5.862,-5.881,-5.8828,-5.8844,-5.8903,-5.8927,-5.8648,-5.8648,-5.8647,-5.8647,0,-5.7826,-5.7925,-5.8005,-5.8105,-5.8167,-5.8275,-5.8303,-5.8365,-5.8364,-5.8392,-5.8521,-5.8577,-5.8671,-5.8708,-5.8708,-5.8861,-5.8839,-5.8807,-5.8741,-5.8872,-5.8928,-5.8951,-5.8655,-5.8653,-5.8652,-5.8651,0,0,-5.8024,-5.813,-5.8159,-5.8203,-5.8288,-5.8364,-5.8468,-5.8562,-5.8613,-5.8683,-5.877,-5.8897,-5.8867,-5.8919,-5.8925,-5.8995,-5.913,-5.8953,-5.8955,-5.8984,-5.93,-5.9325,-5.9351,-5.9118,-5.9122,-5.9126,-5.9294,0,-5.8191,-5.8379,-5.8394,-5.8563,-5.8653,-5.8635,-5.8726,-5.8787,-5.8814,-5.8893,-5.8922,-5.9012,-5.8966,-5.8997,-5.9065,-5.9099,-5.9194,-5.9087,-5.9197,-5.9201,-5.918,-5.9381,-5.9407,-5.9564,-5.9316,-5.932,-5.9323,0,-5.8412,-5.849,-5.8667,-5.8738,-5.8776,-5.8858,-5.8944,-5.902,-5.9087,-5.9102,-5.916,-5.9155,-5.9261,-5.9191,-5.9335,-5.9263,-5.9308,-5.9331,-5.9337,-5.9348,-5.927,-5.9397,-5.9614,-5.9637,-5.9357,-5.9355,-5.9352,0,-5.8539,-5.8687,-5.8812,-5.8851,-5.8936,-5.8994,-5.9032,-5.9094,-5.9149,-5.9223,-5.9258,-5.9342,-5.9389,-5.9453,-5.947,-5.9418,-5.9614,-5.9546,-5.9628,-5.9627,-5.967,-5.9668,-5.9898,-5.97,-5.9699,-5.9699,-5.9698,0,-5.8724,-5.8833,-5.887,-5.8947,-5.9068,-5.9083,-5.9201,-5.9235,-5.9291,-5.9372,-5.9361,-5.9437,-5.9456,-5.9535,-5.9549,-5.9665,-5.9686,-5.97,-5.9702,-5.9701,-5.97,-5.9732,-5.9721,-5.9705,-5.9704,-5.9703,-5.9701,0,-5.8886,-5.8916,-5.9051,-5.912,-5.914,-5.9226,-5.9284,-5.9357,-5.9382,-5.9485,-5.951,-5.955,-5.9642,-5.9666,-5.9776,-5.9785,-5.9922,-5.9914,-5.99,-5.99,-5.998,-5.9972,-6.024,-6.0275,-6.0054,-6.0056,-6.0057,0,-5.9003,-5.9087,-5.9165,-5.922,-5.926,-5.9348,-5.9404,-5.942,-5.9478,-5.956,-5.9622,-5.9713,-5.9787,-5.9935,-5.9972,-6.0055,-6.0049,-6.0137,-6.0061,-6.0057,-6.005,-6.0045,-6.0052,-6.0151,-6.0154,-6.0155,-6.0157,0,-5.9207,-5.9217,-5.9298,-5.9385,-5.9452,-5.952,-5.9585,-5.963,-5.9655,-5.972,-5.9815,-5.9872,-5.9985,-6.0074,-6.0158,-6.0194,-6.018,-6.018,-6.0204,-6.0204,-6.0192,-6.0199,-5.9939,-6.0174,-6.0173,-6.0171,-6.017,-6.017,-5.935,-5.9423,-5.9489,-5.958,-5.9631,-5.9691,-5.9763,-5.9797,-5.9877,-5.9971,-5.9975,-6.0078,-6.014,-6.0251,-6.0292,-6.0371,-6.0344,-6.0378,-6.0386,-6.0395,-6.0401,-6.0179,-6.0386,-6.0385,-6.0385,-6.0385,-6.0384,0,-5.9553,-5.9594,-5.9677,-5.9769,-5.984,-5.9821,-5.9891,-5.9951,-6.0042,-6.0102,-6.0175,-6.0283,-6.037,-6.0413,-6.0498,-6.0553,-6.0548,-6.0575,-6.0571,-6.0579,-6.0421,-6.0392,-6.0577,-6.0577,-6.0577,-6.0577,-6.0577,-6.0577,-5.9667,-5.9789,-5.9806,-5.9953,-5.9992,-6.0095,-6.0136,-6.0191,-6.0239,-6.0361,-6.0433,-6.0461,-6.0514,-6.0602,-6.068,-6.069,-6.0722,-6.0752,-6.0759,-6.061,-6.059,-6.0572,-6.0545,-6.0759,-6.0759,-6.091,-6.0912,-6.0913]}]]